星链-37609(STARLINK-37609)

导读

STARLINK-37609(NORAD编号69036)是美国SpaceX公司星链(Starlink)低轨卫星互联网星座的一员,属于星链项目批量部署的组网卫星。该卫星运行在近地轨道,主要承担全球宽带互联网接入服务,尤其为地面基础设施覆盖不足的偏远地区、海洋和空中场景提供低延迟、高带宽的网络连接。作为星链大规模组网的组成部分,它延续了星链卫星的设计,支持消费级与商用网络服务,同时星链项目也因太空拥堵风险和天文观测干扰问题引发全球讨论。

基本信息
目录编号:
69036
目录名称:
STARLINK-37609
国际标识:
2026-101M
轨道中心:
EARTH
卫星名称:
星链-37609
卫星全名:
星链-37609(STARLINK-37609)
卫星状态:
在轨 (已飞行129 天)
发射日期:
2026-05-06 UTC
国别 :
美国 (US)
星等 :
--
该卫星已列入 空间交会检测服务 Space Conjunction Data Service (SCDS) ,当前飞行风险评估等级: 无高风险
轨道信息
数据来源 国际轨道数据
星历时间: 2026-09-12T04:12:17+0800
12小时前
查看轨道信息
半长轴: 6843.67km
偏心率: 0.0002008
轨道倾角: 97.284°
近地点辐角 83.562°
升交点赤经 108.474°
平近点角 276.585°
近地点: 464.158km
远地点: 466.908km
周期: 93.906分钟
每日圈数: 15.334485
详细信息
固有亮度:
5
最大亮度:
2.5
卫星平台:
Starlink V1.0
覆盖范围:
全球
运营商:
太空探索技术公司
运营商所在国:
美国
制造商(研发单位):
太空探索技术公司
制造商所在国:
美国
使用方式:
暂无
卫星简介
Starlink 计划是 SpaceX 推出的全球卫星互联网项目,通过发射低轨道卫星,为全球尤其是偏远地区提供高速、低延迟的互联网服务。自 2019 年起,Starlink 已部署数千颗卫星,旨在缩小全球数字鸿沟,推动互联网普及。该项目还为军事、航空等行业提供通信支持,带来广泛经济效益。
2D轨道图
3D轨道图
轨道高度分析图
轨道倾角分析图
轨道综合分析图
查看轨道综合分析图
交会数据列表
事件ID 空间交会对象 最接近时刻(TCA) 交会距离 交会风险概率(CRP) 交会风险指数(CRI) 操作
CDM_260906-090304-284006-903621
2026-09-06T
09:03:05+0000
1.644 km
极远距离
2.345122E-6 低风险 0.42
CDM_260913-201006-533006-903621
2026-09-13T
20:10:18+0000
2.212 km
极远距离
1.635292E-6 低风险 0.39
CDM_260913-192005-298806-903621
2026-09-13T
19:20:03+0000
2.862 km
极远距离
1.403477E-6 低风险 0.38
CDM_260914-024805-175306-903621
2026-09-14T
02:48:51+0000
2.400 km
极远距离
1.390937E-6 低风险 0.38
CDM_260910-084404-840606-903621
2026-09-10T
08:44:01+0000
2.739 km
极远距离
1.283006E-6 低风险 0.37
CDM_260914-053006-542306-903621
2026-09-14T
05:30:58+0000
2.518 km
极远距离
1.125358E-6 低风险 0.36
CDM_260906-124504-974906-903621
2026-09-06T
12:45:57+0000
2.866 km
极远距离
1.050794E-6 低风险 0.35
CDM_260912-144905-386406-903621
2026-09-12T
14:49:13+0000
2.997 km
极远距离
9.344309E-7 极低风险 0.34
CDM_260912-141906-635006-903621
2026-09-12T
14:19:55+0000
2.987 km
极远距离
8.480791E-7 极低风险 0.34
与全量物体交会距离演化趋势
与全量物体交会风险概率演化趋势